This is the latest recevied weather packets stored in our database for station/object HA3YA-WX. If no packets are shown the sender has not sent any weather packets the latest 10 day(s).
| Time | Temp. | Humidity | Pressure | Rain* | Wind** | Luminosity | Snow |
|---|---|---|---|---|---|---|---|
| 1777643493 | 22.22° C | 25% | 1012 hPa | - | - | - | - |
| 1777642892 | 21.11° C | 24% | 1012.8 hPa | - | - | - | - |
| 1777642293 | 21.11° C | 25% | 1012.8 hPa | - | - | - | - |
| 1777641692 | 21.11° C | 25% | 1012 hPa | - | - | - | - |
| 1777641093 | 21.11° C | 25% | 1013 hPa | - | - | - | - |
| 1777640492 | 20° C | 25% | 1013 hPa | - | - | - | - |
| 1777639893 | 20° C | 25% | 1013 hPa | - | - | - | - |
| 1777639292 | 20° C | 26% | 1013 hPa | - | - | - | - |
| 1777638693 | 20.56° C | 25% | 1013 hPa | - | - | - | - |
| 1777638093 | 21.67° C | 25% | 1013 hPa | - | - | - | - |
| 1777637492 | 20.56° C | 25% | 1013 hPa | - | - | - | - |
| 1777636892 | 20.56° C | 26% | 1013 hPa | - | - | - | - |
| 1777636293 | 20.56° C | 26% | 1013 hPa | - | - | - | - |
| 1777635693 | 20.56° C | 27% | 1014.1 hPa | - | - | - | - |
| 1777635093 | 20.56° C | 28% | 1014.1 hPa | - | - | - | - |
| 1777634492 | 20° C | 28% | 1014 hPa | - | - | - | - |
| 1777633892 | 20° C | 28% | 1014 hPa | - | - | - | - |
| 1777633293 | 19.44° C | 30% | 1014 hPa | - | - | - | - |
| 1777632692 | 18.89° C | 30% | 1014.8 hPa | - | - | - | - |
| 1777632093 | 18.89° C | 31% | 1014.8 hPa | - | - | - | - |
| 1777631492 | 18.89° C | 32% | 1014 hPa | - | - | - | - |
| 1777630893 | 18.33° C | 33% | 1014 hPa | - | - | - | - |
| 1777630293 | 18.33° C | 34% | 1015.1 hPa | - | - | - | - |
| 1777629693 | 17.78° C | 34% | 1015.1 hPa | - | - | - | - |
| 1777629092 | 17.78° C | 35% | 1015.1 hPa | - | - | - | - |
* Rain since midnight (hover to see other rain measurements)
** Current wind speed in m/s (hover to see current wind gust speed)